[keps] orb12215.amsat
Ray Hoad
ray.hoad at mypbmail.com
Thu Aug 2 19:43:52 PDT 2012
SB KEPS @ AMSAT $ORB12215.O
Orbital Elements 12215.OSCAR
HR AMSAT ORBITAL ELEMENTS FOR OSCAR SATELLITES
FROM WA5QGD FORT WORTH,TX August 2, 2012
Send SUBSCRIBE KEPS/UNSUBSCRIBE KEPS to majordomo at amsat.org only
BID: ORB12215.O
TO ALL RADIO AMATEURS BT
Satellite: AO-07
Catalog number: 07530
Epoch time: 12214.55466960
Element set: 445
Inclination: 101.4051 deg
RA of node: 210.0181 deg
Eccentricity: 0.0011592
Arg of perigee: 192.7824 deg
Mean anomaly: 167.2954 deg
Mean motion: 12.53590410 rev/day
Decay rate: -2.7e-07 rev/day^2
Epoch rev: 72573
Checksum: 271
Satellite: FO-29
Catalog number: 24278
Epoch time: 12214.88552316
Element set: 902
Inclination: 098.5856 deg
RA of node: 309.5651 deg
Eccentricity: 0.0349698
Arg of perigee: 271.0879 deg
Mean anomaly: 085.0222 deg
Mean motion: 13.52985611 rev/day
Decay rate: -2.5e-07 rev/day^2
Epoch rev: 78813
Checksum: 342
Satellite: SO-33
Catalog number: 25509
Epoch time: 12214.68447970
Element set: 0290
Inclination: 031.4359 deg
RA of node: 076.2093 deg
Eccentricity: 0.0353174
Arg of perigee: 241.4381 deg
Mean anomaly: 115.0294 deg
Mean motion: 14.28797956 rev/day
Decay rate: +3.29e-06 rev/day^2
Epoch rev: 71916
Checksum: 321
Satellite: RS-22
Catalog number: 27939
Epoch time: 12215.53970040
Element set: 594
Inclination: 097.8091 deg
RA of node: 053.9723 deg
Eccentricity: 0.0014346
Arg of perigee: 115.4870 deg
Mean anomaly: 244.7816 deg
Mean motion: 14.64081402 rev/day
Decay rate: 4.69e-06 rev/day^2
Epoch rev: 47266
Checksum: 314
Satellite: VO-52
Catalog number: 28650
Epoch time: 12214.86768926
Element set: 0171
Inclination: 097.5953 deg
RA of node: 243.5856 deg
Eccentricity: 0.0025170
Arg of perigee: 250.4001 deg
Mean anomaly: 109.4488 deg
Mean motion: 14.83074342 rev/day
Decay rate: +1.407e-05 rev/day^2
Epoch rev: 39174
Checksum: 314
Satellite: HO-68
Catalog number: 36122
Epoch time: 12215.80797145
Element set: 702
Inclination: 100.3580 deg
RA of node: 274.2073 deg
Eccentricity: 0.0007601
Arg of perigee: 005.2091 deg
Mean anomaly: 354.9103 deg
Mean motion: 13.16297122 rev/day
Decay rate: -4.4e-07 rev/day^2
Epoch rev: 12652
Checksum: 257
/EX
SB KEPS @ AMSAT $ORB12215.D
Orbital Elements 12215.MICROS
HR AMSAT ORBITAL ELEMENTS FOR THE MICROSATS
FROM WA5QGD FORT WORTH,TX August 2, 2012
Send SUBSCRIBE KEPS/UNSUBSCRIBE KEPS to majordomo at amsat.org only
BID: ORB12215.D
TO ALL RADIO AMATEURS BT
Satellite: UO-11
Catalog number: 14781
Epoch time: 12214.94445695
Element set: 0949
Inclination: 097.9499 deg
RA of node: 274.0569 deg
Eccentricity: 0.0007770
Arg of perigee: 242.3580 deg
Mean anomaly: 117.6842 deg
Mean motion: 14.80506995 rev/day
Decay rate: +6.70e-06 rev/day^2
Epoch rev: 52670
Checksum: 347
Satellite: AO-16
Catalog number: 20439
Epoch time: 12215.89992929
Element set: 525
Inclination: 098.4333 deg
RA of node: 157.9722 deg
Eccentricity: 0.0011626
Arg of perigee: 024.5801 deg
Mean anomaly: 335.5932 deg
Mean motion: 14.32069861 rev/day
Decay rate: 7.7e-07 rev/day^2
Epoch rev: 17668
Checksum: 327
Satellite: LO-19
Catalog number: 20442
Epoch time: 12214.93783163
Element set: 0470
Inclination: 098.3980 deg
RA of node: 159.8822 deg
Eccentricity: 0.0012305
Arg of perigee: 019.6265 deg
Mean anomaly: 340.5385 deg
Mean motion: 14.32287521 rev/day
Decay rate: +1.45e-06 rev/day^2
Epoch rev: 17673
Checksum: 304
Satellite: AO-27
Catalog number: 22825
Epoch time: 12214.88328874
Element set: 163
Inclination: 098.5765 deg
RA of node: 156.9915 deg
Eccentricity: 0.0008788
Arg of perigee: 140.0634 deg
Mean anomaly: 220.1188 deg
Mean motion: 14.29474073 rev/day
Decay rate: 5.0e-07 rev/day^2
Epoch rev: 98300
Checksum: 320
Satellite: IO-26
Catalog number: 22826
Epoch time: 12214.87540138
Element set: 0926
Inclination: 098.5708 deg
RA of node: 157.3432 deg
Eccentricity: 0.0009195
Arg of perigee: 134.1829 deg
Mean anomaly: 226.0106 deg
Mean motion: 14.29748977 rev/day
Decay rate: +5.6e-07 rev/day^2
Epoch rev: 98313
Checksum: 328
Satellite: GO-32
Catalog number: 25397
Epoch time: 12214.81156659
Element set: 838
Inclination: 098.3644 deg
RA of node: 191.2843 deg
Eccentricity: 0.0001990
Arg of perigee: 124.7544 deg
Mean anomaly: 235.3809 deg
Mean motion: 14.23285185 rev/day
Decay rate: 6.3e-07 rev/day^2
Epoch rev: 73051
Checksum: 314
Satellite: NO-44
Catalog number: 26931
Epoch time: 12214.71853430
Element set: 102
Inclination: 067.0521 deg
RA of node: 002.9893 deg
Eccentricity: 0.0007225
Arg of perigee: 256.2402 deg
Mean anomaly: 103.7898 deg
Mean motion: 14.29816269 rev/day
Decay rate: 1.85e-06 rev/day^2
Epoch rev: 56575
Checksum: 298
Satellite: SO-50
Catalog number: 27607
Epoch time: 12214.81135617
Element set: 0828
Inclination: 064.5566 deg
RA of node: 156.1044 deg
Eccentricity: 0.0080572
Arg of perigee: 239.4261 deg
Mean anomaly: 119.8886 deg
Mean motion: 14.72445839 rev/day
Decay rate: +4.07e-06 rev/day^2
Epoch rev: 51668
Checksum: 326
Satellite: CO-55
Catalog number: 27844
Epoch time: 12214.61830349
Element set: 430
Inclination: 098.7033 deg
RA of node: 222.3376 deg
Eccentricity: 0.0010673
Arg of perigee: 089.7898 deg
Mean anomaly: 270.4522 deg
Mean motion: 14.21048711 rev/day
Decay rate: 1.48e-06 rev/day^2
Epoch rev: 47134
Checksum: 300
Satellite: CO-57
Catalog number: 27848
Epoch time: 12214.48909375
Element set: 0381
Inclination: 098.7123 deg
RA of node: 221.5643 deg
Eccentricity: 0.0010605
Arg of perigee: 094.9879 deg
Mean anomaly: 265.2532 deg
Mean motion: 14.20796817 rev/day
Decay rate: +8.9e-07 rev/day^2
Epoch rev: 47126
Checksum: 339
Satellite: AO-51
Catalog number: 28375
Epoch time: 12214.90942143
Element set: 330
Inclination: 098.1516 deg
RA of node: 178.0683 deg
Eccentricity: 0.0082760
Arg of perigee: 263.0655 deg
Mean anomaly: 096.1082 deg
Mean motion: 14.40970870 rev/day
Decay rate: 1.23e-06 rev/day^2
Epoch rev: 42535
Checksum: 293
Satellite: CP3
Catalog number: 31129
Epoch time: 12214.59807007
Element set: 227
Inclination: 097.8823 deg
RA of node: 219.7023 deg
Eccentricity: 0.0100889
Arg of perigee: 342.6817 deg
Mean anomaly: 017.0957 deg
Mean motion: 14.53145628 rev/day
Decay rate: 7.66e-06 rev/day^2
Epoch rev: 28057
Checksum: 312
Satellite: CO-65
Catalog number: 32785
Epoch time: 12214.78692883
Element set: 0377
Inclination: 097.7973 deg
RA of node: 274.7543 deg
Eccentricity: 0.0013291
Arg of perigee: 274.0307 deg
Mean anomaly: 085.9390 deg
Mean motion: 14.83080158 rev/day
Decay rate: +8.62e-06 rev/day^2
Epoch rev: 23052
Checksum: 339
Satellite: PRISM
Catalog number: 33493
Epoch time: 12215.71753804
Element set: 938
Inclination: 098.1765 deg
RA of node: 357.4092 deg
Eccentricity: 0.0019470
Arg of perigee: 143.1022 deg
Mean anomaly: 217.1542 deg
Mean motion: 14.84084721 rev/day
Decay rate: 2.180e-05 rev/day^2
Epoch rev: 19065
Checksum: 289
Satellite: SOHLA-1
Catalog number: 33496
Epoch time: 12215.79952920
Element set: 794
Inclination: 098.1087 deg
RA of node: 327.2372 deg
Eccentricity: 0.0005585
Arg of perigee: 252.0910 deg
Mean anomaly: 107.9678 deg
Mean motion: 14.70005835 rev/day
Decay rate: 3.24e-06 rev/day^2
Epoch rev: 18909
Checksum: 318
Satellite: SO-67
Catalog number: 35870
Epoch time: 12215.87047543
Element set: 197
Inclination: 097.2298 deg
RA of node: 249.9782 deg
Eccentricity: 0.0003109
Arg of perigee: 041.5783 deg
Mean anomaly: 083.9538 deg
Mean motion: 15.24148636 rev/day
Decay rate: 3.840e-05 rev/day^2
Epoch rev: 15972
Checksum: 345
Satellite: TISAT-1
Catalog number: 36799
Epoch time: 12215.72430062
Element set: 214
Inclination: 098.0600 deg
RA of node: 292.3980 deg
Eccentricity: 0.0015429
Arg of perigee: 027.2987 deg
Mean anomaly: 332.9062 deg
Mean motion: 14.82092088 rev/day
Decay rate: 1.283e-05 rev/day^2
Epoch rev: 11138
Checksum: 293
Satellite: STUDSAT
Catalog number: 36801
Epoch time: 12214.90614212
Element set: 0457
Inclination: 098.0667 deg
RA of node: 292.4968 deg
Eccentricity: 0.0012995
Arg of perigee: 016.1262 deg
Mean anomaly: 344.0372 deg
Mean motion: 14.84673007 rev/day
Decay rate: +3.572e-05 rev/day^2
Epoch rev: 11130
Checksum: 285
Satellite: FO-69
Catalog number: 37227
Epoch time: 12179.46825757
Element set: 0219
Inclination: 071.9703 deg
RA of node: 289.2712 deg
Eccentricity: 0.0018108
Arg of perigee: 298.3339 deg
Mean anomaly: 061.6016 deg
Mean motion: 14.77092260 rev/day
Decay rate: +1.66e-06 rev/day^2
Epoch rev: 03761
Checksum: 325
Satellite: FO-70
Catalog number: 37380
Epoch time: 12179.47554455
Element set: 0223
Inclination: 071.9743 deg
RA of node: 289.8278 deg
Eccentricity: 0.0018623
Arg of perigee: 295.0880 deg
Mean anomaly: 064.8372 deg
Mean motion: 14.76843679 rev/day
Decay rate: +2.08e-06 rev/day^2
Epoch rev: 03750
Checksum: 343
Satellite: ALMASAT-1
Catalog number: 38078
Epoch time: 12215.44514924
Element set: 439
Inclination: 069.4874 deg
RA of node: 212.3731 deg
Eccentricity: 0.0753127
Arg of perigee: 190.9032 deg
Mean anomaly: 167.4891 deg
Mean motion: 14.10627630 rev/day
Decay rate: 1.5564e-04 rev/day^2
Epoch rev: 2407
Checksum: 301
Satellite: XATCOBEO
Catalog number: 38082
Epoch time: 12215.40065304
Element set: 443
Inclination: 069.4868 deg
RA of node: 209.3402 deg
Eccentricity: 0.0723252
Arg of perigee: 189.2776 deg
Mean anomaly: 169.4266 deg
Mean motion: 14.19500754 rev/day
Decay rate: 3.4248e-04 rev/day^2
Epoch rev: 2414
Checksum: 296
/EX
SB KEPS @ AMSAT $ORB12215.W
Orbital Elements 12215.WEATHER
HR AMSAT ORBITAL ELEMENTS FOR WEATHER SATELLITES
FROM WA5QGD FORT WORTH,TX August 2, 2012
Send SUBSCRIBE KEPS/UNSUBSCRIBE KEPS to majordomo at amsat.org only
BID: ORB12215.W
TO ALL RADIO AMATEURS BT
Satellite: NOAA-10
Catalog number: 16969
Epoch time: 12215.76974074
Element set: 14
Inclination: 098.5788 deg
RA of node: 243.9908 deg
Eccentricity: 0.0013104
Arg of perigee: 097.5080 deg
Mean anomaly: 262.7605 deg
Mean motion: 14.27566624 rev/day
Decay rate: 7.3e-07 rev/day^2
Epoch rev: 34651
Checksum: 321
